Time,TemperatureF,DewpointF,PressureIn,WindDirection,WindDirectionDegrees,WindSpeedMPH,WindSpeedGustMPH,Humidity,HourlyPrecipIn,Conditions,Clouds,dailyrainin,SoftwareType,DateUTC
2013-01-01 00:09:00,30.9,23.0,29.52,West,270,4.3,-999.0,72,-99.99,,,0.00,Acu-Link.com,2013-01-01 05:09:00,
2013-01-01 00:25:00,30.7,22.8,29.51,South,180,1.6,-999.0,72,-99.99,,,0.00,Acu-Link.com,2013-01-01 05:25:00,
2013-01-01 00:40:00,31.1,22.8,29.51,SSW,202,3.1,-999.0,71,-99.99,,,0.00,Acu-Link.com,2013-01-01 05:40:00,
2013-01-01 00:55:00,31.3,23.0,44.19,West,270,4.7,-999.0,71,-99.99,,,0.00,Acu-Link.com,2013-01-01 05:55:00,
2013-01-01 01:10:00,31.5,23.2,29.50,ESE,112,2.2,-999.0,71,-99.99,,,0.00,Acu-Link.com,2013-01-01 06:10:00,
2013-01-01 01:26:00,31.8,23.2,29.50,SSW,202,3.8,-999.0,70,-99.99,,,0.00,Acu-Link.com,2013-01-01 06:26:00,
2013-01-01 01:41:00,31.8,23.5,29.50,South,180,2.2,-999.0,71,-99.99,,,0.00,Acu-Link.com,2013-01-01 06:41:00,
2013-01-01 01:56:00,32.0,24.0,29.51,WNW,292,2.7,-999.0,72,-99.99,,,0.00,Acu-Link.com,2013-01-01 06:56:00,
2013-01-01 02:11:00,32.0,24.0,29.51,South,180,3.1,-999.0,72,-99.99,,,0.00,Acu-Link.com,2013-01-01 07:11:00,
2013-01-01 02:26:00,32.0,24.3,29.50,SW,225,3.8,-999.0,73,-99.99,,,0.00,Acu-Link.com,2013-01-01 07:26:00,
2013-01-01 02:42:00,32.4,24.7,29.50,SSW,202,3.8,-999.0,73,-99.99,,,0.00,Acu-Link.com,2013-01-01 07:42:00,
2013-01-01 02:57:00,32.4,24.7,29.50,SSE,157,2.7,-999.0,73,-99.99,,,0.00,Acu-Link.com,2013-01-01 07:57:00,
2013-01-01 03:12:00,32.4,24.7,29.50,West,270,1.6,-999.0,73,-99.99,,,0.00,Acu-Link.com,2013-01-01 08:12:00,
2013-01-01 03:27:00,32.4,25.0,29.49,South,180,3.1,-999.0,74,-99.99,,,0.00,Acu-Link.com,2013-01-01 08:27:00,
2013-01-01 03:42:00,32.2,25.2,29.49,SW,225,2.2,-999.0,75,-99.99,,,0.00,Acu-Link.com,2013-01-01 08:42:00,
2013-01-01 03:58:00,32.2,25.2,29.48,West,270,1.1,-999.0,75,-99.99,,,0.00,Acu-Link.com,2013-01-01 08:58:00,
2013-01-01 04:13:00,32.4,25.3,29.47,WNW,292,5.1,-999.0,75,-99.99,,,0.00,Acu-Link.com,2013-01-01 09:13:00,
2013-01-01 04:28:00,32.4,25.3,29.48,SW,225,2.2,-999.0,75,-99.99,,,0.00,Acu-Link.com,2013-01-01 09:28:00,
2013-01-01 04:43:00,32.5,25.2,29.49,SE,135,3.1,-999.0,74,-99.99,,,0.00,Acu-Link.com,2013-01-01 09:43:00,
2013-01-01 04:58:00,32.9,25.5,29.48,NNW,337,2.7,-999.0,74,-99.99,,,0.00,Acu-Link.com,2013-01-01 09:58:00,
2013-01-01 05:13:00,33.3,25.6,29.48,East,90,4.3,-999.0,73,-99.99,,,0.00,Acu-Link.com,2013-01-01 10:13:00,
2013-01-01 05:29:00,33.4,25.7,29.49,SE,135,3.8,-999.0,73,-99.99,,,0.00,Acu-Link.com,2013-01-01 10:29:00,
2013-01-01 05:44:00,33.3,25.6,29.49,NW,315,3.8,-999.0,73,-99.99,,,0.00,Acu-Link.com,2013-01-01 10:44:00,
2013-01-01 05:59:00,33.3,25.6,29.49,SSE,157,7.4,-999.0,73,-99.99,,,0.00,Acu-Link.com,2013-01-01 10:59:00,
2013-01-01 06:14:00,33.1,24.7,29.50,West,270,2.2,-999.0,71,-99.99,,,0.00,Acu-Link.com,2013-01-01 11:14:00,
2013-01-01 06:30:00,32.9,24.2,29.49,SE,135,4.7,-999.0,70,-99.99,,,0.00,Acu-Link.com,2013-01-01 11:30:00,
2013-01-01 06:45:00,32.9,24.2,29.50,NW,315,4.7,-999.0,70,-99.99,,,0.00,Acu-Link.com,2013-01-01 11:45:00,
2013-01-01 07:00:00,33.4,24.0,29.51,SW,225,3.1,-999.0,68,-99.99,,,0.00,Acu-Link.com,2013-01-01 12:00:00,
2013-01-01 07:15:00,33.4,23.0,29.51,West,270,4.3,-999.0,65,-99.99,,,0.00,Acu-Link.com,2013-01-01 12:15:00,
2013-01-01 07:30:00,33.8,22.9,29.51,SSW,202,7.4,-999.0,64,-99.99,,,0.00,Acu-Link.com,2013-01-01 12:30:00,
2013-01-01 07:46:00,33.4,21.8,29.52,East,90,2.7,-999.0,62,-99.99,,,0.00,Acu-Link.com,2013-01-01 12:46:00,
2013-01-01 08:01:00,33.6,22.0,29.53,WNW,292,5.8,-999.0,62,-99.99,,,0.00,Acu-Link.com,2013-01-01 13:01:00,
2013-01-01 08:16:00,33.1,21.1,29.54,SSW,202,3.1,-999.0,61,-99.99,,,0.00,Acu-Link.com,2013-01-01 13:16:00,
2013-01-01 08:31:00,32.2,19.1,29.54,West,270,6.3,-999.0,58,-99.99,,,0.00,Acu-Link.com,2013-01-01 13:31:00,
2013-01-01 08:46:00,31.8,17.5,29.53,NNE,22,5.8,-999.0,55,-99.99,,,0.00,Acu-Link.com,2013-01-01 13:46:00,
2013-01-01 09:02:00,32.5,17.8,29.56,SW,225,9.4,-999.0,54,-99.99,,,0.00,Acu-Link.com,2013-01-01 14:02:00,
2013-01-01 09:17:00,33.4,17.3,29.55,North,0,3.8,-999.0,51,-99.99,,,0.00,Acu-Link.com,2013-01-01 14:17:00,
2013-01-01 09:32:00,32.4,17.2,29.56,SSE,157,4.3,-999.0,53,-99.99,,,0.00,Acu-Link.com,2013-01-01 14:32:00,
2013-01-01 09:47:00,33.1,17.4,29.56,WNW,292,5.8,-999.0,52,-99.99,,,0.00,Acu-Link.com,2013-01-01 14:47:00,
2013-01-01 10:03:00,33.6,17.9,29.57,NNW,337,4.3,-999.0,52,-99.99,,,0.00,Acu-Link.com,2013-01-01 15:03:00,
2013-01-01 10:18:00,33.1,17.4,29.58,NNW,337,7.8,-999.0,52,-99.99,,,0.00,Acu-Link.com,2013-01-01 15:18:00,
2013-01-01 10:33:00,33.1,16.9,29.58,WNW,292,5.1,-999.0,51,-99.99,,,0.00,Acu-Link.com,2013-01-01 15:33:00,
2013-01-01 10:48:00,33.3,16.7,29.57,North,0,3.1,-999.0,50,-99.99,,,0.00,Acu-Link.com,2013-01-01 15:48:00,
2013-01-01 11:03:00,33.6,15.6,29.56,NW,315,11.4,-999.0,47,-99.99,,,0.00,Acu-Link.com,2013-01-01 16:03:00,
2013-01-01 11:19:00,31.6,15.6,29.55,NNW,337,9.4,-999.0,51,-99.99,,,0.00,Acu-Link.com,2013-01-01 16:19:00,
2013-01-01 11:34:00,32.0,15.0,29.56,West,270,7.4,-999.0,49,-99.99,,,0.00,Acu-Link.com,2013-01-01 16:34:00,
2013-01-01 11:49:00,31.3,14.8,29.55,South,180,2.7,-999.0,50,-99.99,,,0.00,Acu-Link.com,2013-01-01 16:49:00,
2013-01-01 12:04:00,32.4,15.4,29.55,NW,315,6.7,-999.0,49,-99.99,,,0.00,Acu-Link.com,2013-01-01 17:04:00,
2013-01-01 12:20:00,32.0,14.6,29.54,NW,315,5.1,-999.0,48,-99.99,,,0.00,Acu-Link.com,2013-01-01 17:20:00,
2013-01-01 12:35:00,31.5,14.5,29.54,East,90,4.7,-999.0,49,-99.99,,,0.00,Acu-Link.com,2013-01-01 17:35:00,
2013-01-01 12:50:00,31.5,14.5,29.53,SSW,202,5.1,-999.0,49,-99.99,,,0.00,Acu-Link.com,2013-01-01 17:50:00,
2013-01-01 13:05:00,31.5,15.0,29.54,SW,225,2.7,-999.0,50,-99.99,,,0.00,Acu-Link.com,2013-01-01 18:05:00,
2013-01-01 13:20:00,31.5,15.0,29.54,NNE,22,2.2,-999.0,50,-99.99,,,0.00,Acu-Link.com,2013-01-01 18:20:00,
2013-01-01 13:35:00,31.8,14.9,29.52,NW,315,4.7,-999.0,49,-99.99,,,0.00,Acu-Link.com,2013-01-01 18:35:00,
2013-01-01 13:51:00,31.3,14.8,29.53,West,270,4.3,-999.0,50,-99.99,,,0.00,Acu-Link.com,2013-01-01 18:51:00,
2013-01-01 14:06:00,30.0,14.1,29.53,West,270,8.3,-999.0,51,-99.99,,,0.00,Acu-Link.com,2013-01-01 19:06:00,
2013-01-01 14:21:00,30.2,14.3,29.54,NW,315,6.3,-999.0,51,-99.99,,,0.00,Acu-Link.com,2013-01-01 19:21:00,
2013-01-01 14:36:00,28.9,14.4,29.54,North,0,2.7,-999.0,54,-99.99,,,0.00,Acu-Link.com,2013-01-01 19:36:00,
2013-01-01 14:52:00,29.5,13.6,29.54,ESE,112,7.4,-999.0,51,-99.99,,,0.00,Acu-Link.com,2013-01-01 19:52:00,
2013-01-01 15:07:00,29.3,14.3,29.54,NW,315,3.8,-999.0,53,-99.99,,,0.00,Acu-Link.com,2013-01-01 20:07:00,
2013-01-01 15:22:00,28.6,13.2,29.54,WSW,247,4.3,-999.0,52,-99.99,,,0.00,Acu-Link.com,2013-01-01 20:22:00,
2013-01-01 15:37:00,27.9,13.0,29.54,West,270,2.7,-999.0,53,-99.99,,,0.00,Acu-Link.com,2013-01-01 20:37:00,
2013-01-01 15:52:00,27.3,12.9,29.55,NW,315,7.8,-999.0,54,-99.99,,,0.00,Acu-Link.com,2013-01-01 20:52:00,
2013-01-01 16:08:00,26.8,13.2,29.56,WNW,292,3.1,-999.0,56,-99.99,,,0.00,Acu-Link.com,2013-01-01 21:08:00,
2013-01-01 16:23:00,26.6,13.4,29.56,NW,315,4.7,-999.0,57,-99.99,,,0.00,Acu-Link.com,2013-01-01 21:23:00,
2013-01-01 16:38:00,26.2,12.7,29.56,West,270,6.7,-999.0,56,-99.99,,,0.00,Acu-Link.com,2013-01-01 21:38:00,
2013-01-01 16:53:00,26.1,13.3,29.57,WNW,292,5.1,-999.0,58,-99.99,,,0.00,Acu-Link.com,2013-01-01 21:53:00,
2013-01-01 17:09:00,25.9,13.2,29.58,NW,315,4.3,-999.0,58,-99.99,,,0.00,Acu-Link.com,2013-01-01 22:09:00,
2013-01-01 17:24:00,25.5,13.2,29.58,WNW,292,5.8,-999.0,59,-99.99,,,0.00,Acu-Link.com,2013-01-01 22:24:00,
2013-01-01 17:39:00,24.8,12.5,29.58,NW,315,2.7,-999.0,59,-99.99,,,0.00,Acu-Link.com,2013-01-01 22:39:00,
2013-01-01 17:54:00,24.8,12.5,29.60,NNE,22,1.6,-999.0,59,-99.99,,,0.00,Acu-Link.com,2013-01-01 22:54:00,
2013-01-01 18:09:00,24.1,11.9,29.61,West,270,2.7,-999.0,59,-99.99,,,0.00,Acu-Link.com,2013-01-01 23:09:00,
2013-01-01 18:25:00,23.9,10.5,29.62,NW,315,3.8,-999.0,56,-99.99,,,0.00,Acu-Link.com,2013-01-01 23:25:00,
2013-01-01 18:40:00,23.5,10.2,29.63,NW,315,3.1,-999.0,56,-99.99,,,0.00,Acu-Link.com,2013-01-01 23:40:00,
2013-01-01 18:55:00,23.2,9.8,29.63,NNE,22,4.3,-999.0,56,-99.99,,,0.00,Acu-Link.com,2013-01-01 23:55:00,
2013-01-01 19:10:00,23.0,9.3,29.63,NNW,337,3.8,-999.0,55,-99.99,,,0.00,Acu-Link.com,2013-01-02 00:10:00,
2013-01-01 19:25:00,22.6,8.5,29.64,South,180,2.2,-999.0,54,-99.99,,,0.00,Acu-Link.com,2013-01-02 00:25:00,
2013-01-01 19:41:00,22.1,8.8,29.64,North,0,1.6,-999.0,56,-99.99,,,0.00,Acu-Link.com,2013-01-02 00:41:00,
2013-01-01 19:56:00,21.7,8.9,29.65,NNE,22,3.8,-999.0,57,-99.99,,,0.00,Acu-Link.com,2013-01-02 00:56:00,
2013-01-01 20:11:00,20.8,8.4,29.65,NW,315,3.1,-999.0,58,-99.99,,,0.00,Acu-Link.com,2013-01-02 01:11:00,
2013-01-01 20:26:00,20.1,8.5,29.65,NW,315,2.2,-999.0,60,-99.99,,,0.00,Acu-Link.com,2013-01-02 01:26:00,
2013-01-01 20:42:00,19.4,8.2,29.65,NW,315,4.3,-999.0,61,-99.99,,,0.00,Acu-Link.com,2013-01-02 01:42:00,
2013-01-01 20:57:00,18.9,8.4,29.65,NNW,337,4.3,-999.0,63,-99.99,,,0.00,Acu-Link.com,2013-01-02 01:57:00,
2013-01-01 21:12:00,18.3,8.2,29.65,West,270,2.2,-999.0,64,-99.99,,,0.00,Acu-Link.com,2013-01-02 02:12:00,
2013-01-01 21:27:00,18.0,8.2,29.66,NNW,337,2.2,-999.0,65,-99.99,,,0.00,Acu-Link.com,2013-01-02 02:27:00,
2013-01-01 21:42:00,17.2,7.5,29.66,WNW,292,1.6,-999.0,65,-99.99,,,0.00,Acu-Link.com,2013-01-02 02:42:00,
2013-01-01 21:58:00,16.5,7.2,29.67,WNW,292,2.2,-999.0,66,-99.99,,,0.00,Acu-Link.com,2013-01-02 02:58:00,
2013-01-01 22:13:00,15.8,6.8,29.67,West,270,1.6,-999.0,67,-99.99,,,0.00,Acu-Link.com,2013-01-02 03:13:00,
2013-01-01 22:28:00,15.3,6.6,29.67,WNW,292,1.1,-999.0,68,-99.99,,,0.00,Acu-Link.com,2013-01-02 03:28:00,
2013-01-01 22:43:00,14.9,6.0,29.69,WNW,292,1.6,-999.0,67,-99.99,,,0.00,Acu-Link.com,2013-01-02 03:43:00,
2013-01-01 22:59:00,15.1,5.8,29.69,NW,315,2.7,-999.0,66,-99.99,,,0.00,Acu-Link.com,2013-01-02 03:59:00,
2013-01-01 23:14:00,14.5,5.3,29.69,NNW,337,1.6,-999.0,66,-99.99,,,0.00,Acu-Link.com,2013-01-02 04:14:00,
2013-01-01 23:29:00,14.0,4.8,29.69,NE,45,1.6,-999.0,66,-99.99,,,0.00,Acu-Link.com,2013-01-02 04:29:00,
2013-01-01 23:44:00,13.5,4.3,29.69,WNW,292,3.8,-999.0,66,-99.99,,,0.00,Acu-Link.com,2013-01-02 04:44:00,
2013-01-01 23:59:00,13.8,3.6,29.69,West,270,2.7,-999.0,63,-99.99,,,0.00,Acu-Link.com,2013-01-02 04:59:00,